[[{"header":{"parameterUnit":"m.s-1","parameterCategory":1,"la1":30.2991,"la2":30.254,"lo1":-89.0895,"lo2":-89.0444,"dy":0.0017,"dx":0.0017,"nx":28,"ny":28,"refTime":"2025-06-11T21:00:00:Z","depth":0,"parameterNumber":2,"parameterNumberName":"U-component_of_WINDS"},"data":[0,0,0,0,0,0,0,0,0,0,0,0,0,0,0,0,0,0,0,0,0,0,0,0,0,0,0,0,0,0,0,0,0,0,0,0,0,0,0,0,0,0,0,0,0,0,0,0,0,0,0,0,0,0,0,0,0,0,-0.6609,-0.6608,0,-0.6569,-0.6569,-0.6568,-0.6557,-0.6557,-0.6557,-0.6558,-0.6518,-0.6517,-0.6516,0,0,0,0,0,0,0,0,0,0,0,0,0,-0.6675,-0.6674,-0.6609,-0.6608,-0.6608,-0.6569,-0.6569,-0.6568,-0.6557,-0.6557,-0.6557,-0.6558,-0.6518,-0.6517,-0.6516,0,0,0,0,0,0,0,0,0,0,0,0,0,-0.6642,-0.6674,-0.6609,-0.6597,-0.6596,-0.657,-0.6569,-0.6568,-0.6557,-0.6557,-0.6558,-0.6558,-0.6519,-0.6517,-0.6515,-0.6498,0,0,-0.651,-0.6509,0,0,0,0,0,0,0,0,-0.6644,-0.664,-0.6599,-0.6598,-0.6596,-0.6568,-0.6578,-0.6545,-0.6557,-0.6572,-0.6558,-0.6558,-0.6535,-0.6531,-0.6523,-0.6496,-0.6494,-0.6509,-0.6508,-0.6508,-0.6507,0,0,0,0,0,0,0,-0.6646,-0.6641,-0.6593,-0.6599,-0.6597,-0.6595,-0.659,-0.6571,-0.6552,-0.657,-0.657,-0.6565,-0.6534,-0.6525,-0.6522,-0.6494,-0.651,-0.6508,-0.6507,-0.6506,-0.6451,-0.645,0,0,0,0,0,0,-0.665,-0.6643,-0.6594,-0.6592,-0.6621,-0.6593,-0.6588,-0.6577,-0.6552,-0.6549,-0.6565,-0.6565,-0.6528,-0.6525,-0.6521,-0.6499,-0.6508,-0.6506,-0.6505,-0.6451,-0.6451,-0.645,0,0,0,0,0,0,-0.6652,-0.6646,-0.6596,-0.6617,-0.6611,-0.6592,-0.6579,-0.6576,-0.6568,-0.6548,-0.6544,-0.656,-0.6528,-0.6524,-0.6504,-0.6498,-0.6505,-0.6503,-0.6451,-0.6451,-0.645,-0.6456,0,0,0,0,0,0,-0.6654,-0.6647,-0.6639,-0.6617,-0.661,-0.6579,-0.6579,-0.6575,-0.6564,-0.6564,-0.6542,-0.6539,-0.6528,-0.6507,-0.6502,-0.6495,-0.6502,-0.6452,-0.6451,-0.6451,-0.6456,-0.6455,-0.6455,0,0,0,0,0,-0.6656,-0.6642,-0.6639,-0.6633,-0.66,-0.6579,-0.6574,-0.6562,-0.6564,-0.6557,-0.6544,-0.6539,-0.6499,-0.6505,-0.6499,-0.6492,-0.6452,-0.6451,-0.6451,-0.6456,-0.6455,-0.6455,0,0,0,0,0,0,-0.6664,-0.6639,-0.6635,-0.6614,-0.6598,-0.6577,-0.6567,-0.6562,-0.6546,-0.6546,-0.6532,-0.6527,-0.6509,-0.6498,-0.6505,-0.6474,-0.6476,-0.6474,-0.6482,-0.6481,-0.648,-0.6483,-0.65,0,0,0,0,0,-0.6663,-0.6648,-0.6627,-0.661,-0.6602,-0.6586,-0.6576,-0.6569,-0.6552,-0.6546,-0.6532,-0.6516,-0.65,-0.649,-0.6474,-0.6454,-0.645,-0.6447,-0.6447,-0.6446,-0.6445,-0.6435,-0.6433,-0.6448,-0.6448,-0.6448,0,0,-0.6662,-0.6646,-0.6637,-0.6611,-0.6598,-0.6583,-0.6581,-0.6564,-0.6553,-0.6543,-0.6524,-0.6513,-0.6495,-0.6475,-0.6466,-0.6466,-0.644,-0.6445,-0.6445,-0.6444,-0.6434,-0.6432,-0.6431,-0.6447,-0.6447,-0.6447,0,0,-0.6651,-0.6637,-0.6622,-0.6609,-0.659,-0.6579,-0.6576,-0.6555,-0.6548,-0.6528,-0.6521,-0.6507,-0.648,-0.6467,-0.6458,-0.6443,-0.6439,-0.6439,-0.6436,-0.6426,-0.6425,-0.6424,-0.642,-0.6418,-0.6437,-0.6437,-0.6437,0,-0.6651,-0.6627,-0.6615,-0.6599,-0.6588,-0.6579,-0.6564,-0.6552,-0.6529,-0.6522,-0.6522,-0.6488,-0.6476,-0.6453,-0.645,-0.6442,-0.6438,-0.6441,-0.6426,-0.6425,-0.6424,-0.6419,-0.6418,-0.6437,-0.6437,-0.6437,-0.6437,0,-0.6629,-0.6613,-0.6603,-0.6581,-0.6569,-0.6553,-0.6539,-0.6529,-0.6522,-0.6512,-0.6493,-0.6477,-0.6458,-0.6453,-0.6446,-0.643,-0.6431,-0.6429,-0.643,-0.6423,-0.6418,-0.6417,-0.6438,-0.6438,-0.6437,-0.6437,0,0,-0.6621,-0.6593,-0.659,-0.658,-0.6559,-0.6546,-0.6531,-0.6512,-0.6504,-0.6488,-0.6476,-0.6453,-0.6452,-0.6441,-0.6433,-0.6424,-0.6415,-0.6424,-0.6423,-0.6423,-0.6397,-0.6399,-0.6397,-0.6412,-0.6411,-0.6411,-0.6399,0,-0.6608,-0.658,-0.6569,-0.6546,-0.6532,-0.6523,-0.651,-0.6496,-0.6486,-0.6472,-0.6462,-0.6446,-0.6445,-0.6438,-0.643,-0.6418,-0.641,-0.6419,-0.64,-0.64,-0.6405,-0.6395,-0.6396,-0.6385,-0.6397,-0.6397,-0.6396,0,-0.6589,-0.6573,-0.6549,-0.653,-0.6524,-0.6512,-0.6495,-0.6482,-0.6466,-0.646,-0.6448,-0.6441,-0.6425,-0.6427,-0.6406,-0.6413,-0.6404,-0.6398,-0.6397,-0.6395,-0.6398,-0.6393,-0.6381,-0.638,-0.6394,-0.6394,-0.6394,0,-0.6586,-0.656,-0.6542,-0.6534,-0.6511,-0.6503,-0.6494,-0.6478,-0.6468,-0.6453,-0.6447,-0.643,-0.6422,-0.6409,-0.6398,-0.6401,-0.6379,-0.638,-0.6373,-0.6374,-0.6369,-0.6369,-0.6356,-0.6363,-0.6363,-0.6363,-0.6363,0,-0.6573,-0.6559,-0.6541,-0.653,-0.6514,-0.6502,-0.6487,-0.6476,-0.6463,-0.645,-0.6442,-0.6431,-0.6417,-0.6404,-0.6395,-0.6379,-0.6375,-0.637,-0.6368,-0.6371,-0.6372,-0.6365,-0.6366,-0.6363,-0.6363,-0.6363,-0.6363,0,-0.6568,-0.6555,-0.6535,-0.6516,-0.6511,-0.65,-0.6483,-0.6473,-0.6463,-0.6448,-0.6443,-0.6428,-0.6412,-0.64,-0.638,-0.6374,-0.6358,-0.6355,-0.6363,-0.6362,-0.6356,-0.6357,-0.6339,-0.6337,-0.6345,-0.6345,-0.6345,0,-0.656,-0.6549,-0.6528,-0.6519,-0.651,-0.6495,-0.6485,-0.6473,-0.6463,-0.6445,-0.6437,-0.6421,-0.6407,-0.6383,-0.637,-0.6355,-0.6352,-0.6347,-0.635,-0.6353,-0.6353,-0.6353,-0.6353,-0.6347,-0.6347,-0.6346,-0.6346,0,-0.6548,-0.6543,-0.6528,-0.6512,-0.65,-0.6487,-0.6473,-0.6466,-0.6452,-0.6441,-0.6425,-0.6415,-0.6394,-0.6378,-0.6362,-0.6352,-0.6347,-0.6346,-0.6344,-0.6346,-0.6352,-0.6349,-0.6362,-0.6346,-0.6346,-0.6346,-0.6346,-0.6346,-0.6542,-0.6532,-0.6516,-0.6501,-0.6489,-0.6477,-0.6466,-0.6455,-0.6442,-0.6424,-0.6418,-0.6401,-0.6387,-0.6364,-0.6355,-0.6342,-0.6342,-0.6339,-0.6338,-0.6337,-0.6338,-0.6354,-0.6339,-0.6339,-0.6339,-0.6339,-0.6339,0,-0.653,-0.6519,-0.6505,-0.6487,-0.6475,-0.6471,-0.6456,-0.6446,-0.6432,-0.6419,-0.6406,-0.6388,-0.6373,-0.6359,-0.6344,-0.6336,-0.6334,-0.6333,-0.6333,-0.6331,-0.6339,-0.6342,-0.6335,-0.6335,-0.6335,-0.6335,-0.6335,-0.6335,-0.6522,-0.6506,-0.6498,-0.6476,-0.6466,-0.645,-0.6442,-0.6431,-0.642,-0.64,-0.6388,-0.6379,-0.6366,-0.6349,-0.6336,-0.6332,-0.6327,-0.6327,-0.6323,-0.633,-0.6331,-0.6331,-0.6335,-0.6326,-0.6326,-0.6316,-0.6316,-0.6316]},{"header":{"parameterUnit":"m.s-1","parameterCategory":1,"la1":30.2991,"la2":30.254,"lo1":-89.0895,"lo2":-89.0444,"dy":0.0017,"dx":0.0017,"nx":28,"ny":28,"refTime":"2025-06-11T21:00:00:Z","depth":0,"parameterNumber":3,"parameterNumberName":"V-component_of_WINDS"},"data":[0,0,0,0,0,0,0,0,0,0,0,0,0,0,0,0,0,0,0,0,0,0,0,0,0,0,0,0,0,0,0,0,0,0,0,0,0,0,0,0,0,0,0,0,0,0,0,0,0,0,0,0,0,0,0,0,0,0,2.6373,2.6374,0,2.6442,2.6443,2.6444,2.6407,2.6405,2.6403,2.6401,2.6469,2.6472,2.6476,0,0,0,0,0,0,0,0,0,0,0,0,0,2.6202,2.6206,2.6373,2.6374,2.6375,2.6442,2.6443,2.6444,2.6407,2.6405,2.6403,2.64,2.6468,2.6472,2.6476,0,0,0,0,0,0,0,0,0,0,0,0,0,2.6275,2.6207,2.6373,2.6364,2.6364,2.6442,2.6443,2.6444,2.6408,2.6405,2.6402,2.6399,2.6466,2.6471,2.6477,2.6566,0,0,2.6493,2.6495,0,0,0,0,0,0,0,0,2.6271,2.6281,2.6365,2.6365,2.6365,2.6413,2.6408,2.6485,2.6408,2.6391,2.6401,2.6398,2.6452,2.6459,2.6478,2.6569,2.6572,2.6493,2.6497,2.6499,2.65,0,0,0,0,0,0,0,2.6266,2.6278,2.64,2.6366,2.6366,2.6355,2.6362,2.6422,2.6436,2.6392,2.639,2.6399,2.6452,2.6473,2.6479,2.6573,2.6493,2.6498,2.6501,2.6503,2.6737,2.674,0,0,0,0,0,0,2.6262,2.6274,2.6398,2.6402,2.631,2.6361,2.6369,2.6401,2.6436,2.6438,2.6401,2.6397,2.6465,2.6473,2.6481,2.6586,2.6499,2.6504,2.6507,2.6734,2.6738,2.6741,0,0,0,0,0,0,2.6258,2.6273,2.6395,2.6337,2.6352,2.6367,2.6403,2.6403,2.6424,2.6442,2.6444,2.642,2.6463,2.6474,2.6545,2.6588,2.6506,2.6511,2.673,2.6735,2.6739,2.6797,0,0,0,0,0,0,2.6253,2.6272,2.6308,2.6339,2.6355,2.6459,2.6405,2.6407,2.6434,2.6429,2.6461,2.6463,2.6462,2.6537,2.655,2.6593,2.6515,2.6727,2.6733,2.6738,2.6791,2.6803,2.6813,0,0,0,0,0,2.6248,2.6321,2.631,2.6325,2.64,2.6462,2.6471,2.6469,2.6438,2.6472,2.6483,2.6462,2.6581,2.6544,2.6559,2.6605,2.6724,2.6731,2.6737,2.6786,2.68,2.6812,0,0,0,0,0,0,2.6294,2.6325,2.6313,2.6399,2.6428,2.6455,2.6499,2.6485,2.6523,2.6516,2.6511,2.6518,2.6591,2.6605,2.6564,2.6691,2.6647,2.6657,2.6679,2.6693,2.6704,2.6698,2.652,0,0,0,0,0,2.6314,2.6363,2.6387,2.646,2.6476,2.6485,2.6512,2.6507,2.6537,2.6549,2.6566,2.6594,2.6637,2.6666,2.6707,2.6793,2.6798,2.6831,2.6842,2.6851,2.6859,2.6903,2.6917,2.6763,2.6763,2.6763,0,0,2.6357,2.6379,2.6411,2.647,2.6492,2.6541,2.6496,2.655,2.6585,2.6557,2.6624,2.6637,2.6668,2.6746,2.6782,2.676,2.6903,2.6859,2.6866,2.687,2.6911,2.6926,2.6939,2.6768,2.6767,2.6766,0,0,2.6458,2.6482,2.6544,2.6567,2.6601,2.6607,2.6622,2.6651,2.6659,2.6727,2.6706,2.6747,2.6823,2.6845,2.6866,2.6974,2.6955,2.6987,2.7043,2.7086,2.7098,2.7108,2.7145,2.7158,2.6996,2.6996,2.6996,0,2.6506,2.6581,2.6578,2.6633,2.6659,2.6636,2.6697,2.6719,2.6765,2.6782,2.6758,2.6851,2.687,2.6952,2.6978,2.6997,2.7011,2.6983,2.7097,2.7107,2.7117,2.7151,2.7165,2.6999,2.6999,2.6999,2.6998,0,2.6636,2.6688,2.6734,2.6779,2.681,2.6868,2.6872,2.6903,2.6896,2.6903,2.6971,2.6993,2.7037,2.7056,2.705,2.7136,2.7122,2.7097,2.7053,2.7135,2.7167,2.7181,2.7004,2.7003,2.7002,2.7001,0,0,2.677,2.6812,2.6828,2.6847,2.6883,2.6921,2.6977,2.7021,2.7047,2.7079,2.7124,2.7187,2.7164,2.7188,2.7183,2.7221,2.7302,2.7192,2.7192,2.721,2.7396,2.7413,2.7429,2.729,2.7292,2.7295,2.7393,0,2.6873,2.6972,2.697,2.7061,2.7107,2.7085,2.7133,2.7159,2.7167,2.7205,2.7213,2.7258,2.7225,2.7239,2.7275,2.7285,2.7339,2.7278,2.733,2.7332,2.7322,2.7446,2.7465,2.7557,2.7406,2.7408,2.7409,0,2.7006,2.7042,2.7138,2.7164,2.7184,2.7227,2.7266,2.7304,2.7331,2.7334,2.736,2.7349,2.7403,2.7358,2.7431,2.739,2.7411,2.7418,2.7422,2.7425,2.7375,2.7451,2.7586,2.7599,2.7429,2.7428,2.7426,0,2.7091,2.7164,2.723,2.7247,2.728,2.7311,2.7326,2.7351,2.7376,2.741,2.7425,2.7465,2.7486,2.7515,2.7513,2.7481,2.7587,2.7542,2.7589,2.7589,2.7611,2.761,2.775,2.7628,2.7627,2.7627,2.7627,0,2.7205,2.7264,2.7269,2.731,2.7374,2.737,2.7434,2.7445,2.7467,2.7508,2.7491,2.7529,2.7525,2.7563,2.7562,2.7622,2.7632,2.7634,2.7633,2.7635,2.7634,2.7648,2.7641,2.7631,2.763,2.7629,2.7629,0,2.7312,2.7317,2.7387,2.7412,2.742,2.7466,2.7486,2.7524,2.7529,2.7581,2.7593,2.7601,2.7645,2.7647,2.7697,2.7696,2.7768,2.776,2.7759,2.7757,2.7802,2.7797,2.7955,2.7974,2.7841,2.7842,2.7843,0,2.7383,2.7428,2.7458,2.7484,2.7501,2.7544,2.757,2.7567,2.7594,2.7628,2.766,2.7702,2.7736,2.7806,2.7816,2.7853,2.7845,2.7898,2.7851,2.785,2.7844,2.784,2.7844,2.7906,2.7908,2.7909,2.791,0,2.751,2.751,2.7548,2.7588,2.7619,2.7649,2.7678,2.77,2.77,2.7731,2.7776,2.7802,2.7852,2.7893,2.7929,2.7942,2.7926,2.7925,2.7937,2.7939,2.7936,2.7936,2.7782,2.7921,2.792,2.7919,2.7919,2.7918,2.76,2.7637,2.7664,2.7706,2.7727,2.7754,2.7789,2.7799,2.7837,2.7878,2.7874,2.7923,2.7946,2.7993,2.8009,2.8046,2.8027,2.8046,2.805,2.8055,2.8059,2.7931,2.8052,2.8052,2.8052,2.8052,2.8051,0,2.7723,2.7739,2.7778,2.7818,2.7851,2.7833,2.7863,2.7891,2.7935,2.7959,2.7992,2.8042,2.8081,2.8093,2.8131,2.8158,2.8151,2.8167,2.8165,2.8167,2.8074,2.8059,2.8172,2.8172,2.8172,2.8172,2.8172,2.8172,2.7791,2.7854,2.7857,2.7928,2.7943,2.7991,2.8009,2.8032,2.8051,2.8108,2.8141,2.8149,2.8167,2.8205,2.824,2.8242,2.8256,2.8275,2.8274,2.8186,2.8174,2.8163,2.8148,2.8279,2.8279,2.8364,2.8365,2.8366]}]]